Regional Weather Roundup
Issued by NWS

Home | Current Version | Previous Version | Graphics & Text | Print | Product List | Glossary On
Versions: 1 2 3 4 5 6 7 8 9 10 11 12 13 14 15 16 17 18 19 20 21 22 23 24 25 26 27 28 29 30 31 32 33 34 35 36 37 38 39 40 41 42 43 44 45 46 47 48 49 50
000
ASUS43 KLOT 050458
RWRIL

ILLINOIS REGIONAL WEATHER ROUNDUP
NATIONAL WEATHER SERVICE CHICAGO/ROMEOVILLE IL
1100 PM CST WED MAR 04 2015

NOTE: "FAIR" INDICATES FEW OR NO CLOUDS BELOW 12,000 FEET WITH NO
SIGNIFICANT WEATHER AND/OR OBSTRUCTIONS TO VISIBILITY.

* THESE STATIONS ARE NOT UNDER NWS QUALITY CONTROL. THEY ALSO MAY NOT
  REPORT WEATHER SUCH AS PRECIPITATION OR FOG.

ILZ001-002-007-009-015-016-024-050600-
NORTHWEST ILLINOIS

CITY           SKY/WX    TMP DP  RH WIND       PRES   REMARKS
MOLINE         CLOUDY    13   0  56 N9        30.42R WCI   1
$$

ILZ003-004-008-010-011-017-018-050600-
NORTH CENTRAL ILLINOIS

CITY           SKY/WX    TMP DP  RH WIND       PRES   REMARKS
ROCKFORD       NOT AVBL
$$

ILZ005-006-012>014-019>023-050600-
NORTHEAST ILLINOIS

CITY           SKY/WX    TMP DP  RH WIND       PRES   REMARKS
CHICAGO-OHARE  CLOUDY    12  -1  56 NW10      30.34R WCI  -1
CHICAGO-MIDWAY MOCLDY    15   0  51 NW12      30.35R WCI   2
AURORA         CLEAR      9  -2  61 NW12      30.36R WCI  -6
WAUKEGAN       NOT AVBL
DUPAGE AIRPORT CLEAR     11  -2  56 NW10      30.34R WCI  -3
WHEELING       PTCLDY    12  -2  53 NW8       30.37R WCI   0
NORTHERLY ISL    N/A     17   2  51 W10         N/A  WCI   5
$$

LMZ740>746-050600-
SOUTHERN LAKE MICHIGAN

STATION/POSITION SKY/WX   TEMP    WIND        PRES    VSBY  WAVE
                          AIR SEA DIR/SP/G                  HT/PER
                          (F)     (DEG/KT/KT) (MB)    (MI)  (FT/S)
WAUKEGAN HARBOR            13                   N/A
HARRISON CRIB              16     300/ 17/ 21   N/A
BURNHAM HARBOR             17     280/  9/ 14   N/A
CALUMET HARBOR             16     280/  9/ 12 1026.0R
MICHIGAN CITY              18     270/ 11/ 13   N/A
$$

ILZ025>027-034>036-040-047-049-050-058-095>099-050600-
WEST-CENTRAL ILLINOIS

CITY           SKY/WX    TMP DP  RH WIND       PRES   REMARKS
$$

ILZ028>032-037-038-041>044-048-051>054-059>061-050600-
CENTRAL ILLINOIS

CITY           SKY/WX    TMP DP  RH WIND       PRES   REMARKS
PEORIA         NOT AVBL
SPRINGFIELD    MOCLDY    19   5  54 N6        30.38R WCI  11
TAYLORVILLE    NOT AVBL
$$

ILZ033-039-045-046-055>057-062-063-050600-
EAST-CENTRAL ILLINOIS

CITY           SKY/WX    TMP DP  RH WIND       PRES   REMARKS
CHAMPAIGN      CLOUDY    16   7  67 NW13      30.35R WCI   2
MATTOON        CLOUDY    17   8  67 N10       30.34R WCI   5
$$

ILZ079-100>102-050600-
SOUTHWEST ILLINOIS

CITY           SKY/WX    TMP DP  RH WIND       PRES   REMARKS
CAHOKIA*       CLOUDY    23   6  48 N9        30.40R WCI  13
$$

ILZ064>066-069>071-074>076-080>082-084>086-088>090-092>094-050600-
SOUTH-CENTRAL ILLINOIS

CITY           SKY/WX    TMP DP  RH WIND       PRES   REMARKS
CARBONDALE     CLOUDY    21   6  52 N12G21    30.35S WCI   9
$$

ILZ067-068-072-073-078-083-087-091-050600-
SOUTHEAST ILLINOIS

CITY           SKY/WX    TMP DP  RH WIND       PRES   REMARKS
LAWRENCEVILLE  CLOUDY    20   7  57 N17       30.33S WCI   5
ROBINSON*      CLOUDY    19   7  59 N12       30.34S WCI   7
$$

ABBREVIATIONS USED IN REMARKS
   TC - TEMPERATURE IN CELSIUS
  WCI - WIND CHILL INDEX
   HX - HEAT INDEX
  VSB - VISIBILITY
$$



USA.gov is the U.S. government's official web portal to all federal, state and local government web resources and services.